Location: Detroit
(42.3310°N, 83.0460°W)
Time: 14:29:17
(UTC-04:00)

ISS - Visible Passes

Search period start: 26 May 2022 00:00
Search period end: 05 June 2022 00:00
Orbit: 414 x 421 km, 51.6° (Epoch: 26 May)

Date Brightness Start Highest point End Pass type
(mag) Time Alt. Az. Time Alt. Az. Time Alt. Az.
26 May -2.8 22:48:28 10° NW 22:51:41 41° NNE 22:53:04 26° E visible
27 May -1.0 00:25:27 10° WNW 00:25:58 13° W 00:25:58 13° W visible
27 May -2.2 22:00:26 10° NW 22:03:27 30° NNE 22:06:27 10° E visible
27 May -2.7 23:37:06 10° WNW 23:39:32 37° W 23:39:32 37° W visible
28 May -3.9 22:48:53 10° WNW 22:52:14 81° SW 22:53:07 46° SE visible
29 May -3.5 22:00:44 10° NW 22:04:04 62° NNE 22:06:43 15° ESE visible
29 May -1.4 23:38:17 10° W 23:39:37 15° WSW 23:39:37 15° WSW visible
30 May -2.5 22:49:34 10° WNW 22:52:30 28° SW 22:53:15 25° SSW visible
31 May -3.2 22:01:09 10° WNW 22:04:25 49° SW 22:06:55 15° SSE visible
01 Jun -1.1 22:51:55 10° WSW 22:52:29 10° SW 22:53:01 10° SW visible
02 Jun -1.6 22:02:06 10° W 22:04:27 18° SW 22:06:47 10° S visible
